Location: Cucq
(50.4773°N, 1.6202°E)
Time: 01:59:41
(UTC+00:00)

Cosmos 1758 - Pass Details

Date: 07 August 2020
Orbit: 540 x 562 km, 82.5° (Epoch: 25 September)

Event Time Altitude Azimuth Distance (km) Brightness Sun altitude
Exits shadow 03:12:19 13° 201° (SSW) 1,646 5.2 -11.0°
Maximum altitude 03:15:52 64° 282° (WNW) 618 3.4 -10.5°
Drops below altitude 10° 03:19:53 10° 5° (N) 1,839 6.7 -10.1°
Sets 03:22:04 0° 8° (N) 2,734 7.7 -9.8°
